Home > Time Zones > World Clock > Weather > Cuba > Havana > Past weeks

Flag Weather past 2 weeks in Havana, Cuba

Now
84 °F

Partly sunny.


Feels Like: 85 °F
Forecast: 69 / 84 °F
Wind: 6 mph from North

Location: Aeropuerto Jose Marti - Rancho-Boyeros - Habana

Current Time: Oct 30, 2014 at 1:44:12 PM

Latest Report: Oct 30, 2014 at 12:55 PM


Visibility: N/A

Pressure: 29.98 "Hg

Humidity: 48%

Dew point: 63 °F

Location of HavanaLocation

Historic Weather in Havana — Graph

°F

Havana temperature yesterday

Maximum temperature yesterday: 88 °F (at 2:55 PM)
Minimum temperature yesterday: 70 °F (at 3:55 AM)
Average temperature yesterday: 77 °F

Past Weeks' High & Low Weather Summary

 TemperatureHumidityPressure
High88 °F (Oct 28, 1:55 PM)94% (Oct 16, 1:55 AM)30.09 "Hg (Oct 16, 1:55 AM)
Low61 °F (Oct 18, 5:55 AM)38% (Oct 28, 1:55 PM)29.80 "Hg (Oct 23, 3:55 PM)
Average75 °F76%29.95 "Hg
* Reported Oct 15 12:55 PM — Oct 30 12:55 PM, Havana, Weather by CustomWeather, © 2014

Note: Actual official high and low records may vary slightly from our data, if they occured in-between our weather recording intervals... More about our weather records

Advertising

Havana weather history for previous 24 hours

 ConditionsComfort  
Time TempWeatherWind HumidityBarometerVisibility
12:55 PM
Oct 30
84 °FPartly sunny.6 mph48%29.98 "HgN/A
11:55 AM82 °FScattered clouds.7 mph51%29.98 "HgN/A
10:55 AM81 °FPassing clouds.6 mph58%30.01 "HgN/A
9:55 AM79 °FPassing clouds.6 mph65%30.01 "Hg6 mi
8:55 AM70 °FPassing clouds.No wind88%29.98 "Hg6 mi
7:55 AMN/ALight fog.1 mphN/AN/A5 mi
6:55 AM63 °FPassing clouds.1 mph94%29.98 "Hg6 mi
5:55 AM63 °FPassing clouds.No wind94%29.95 "Hg5 mi
4:55 AM64 °FLight fog.1 mph88%29.95 "Hg4 mi
3:55 AM64 °FPassing clouds.2 mph94%29.95 "Hg5 mi
2:55 AM66 °FLight fog.3 mph88%29.98 "Hg5 mi
1:55 AM66 °FPassing clouds.2 mph94%29.98 "Hg6 mi
12:55 AM68 °FPassing clouds.2 mph88%29.98 "Hg6 mi
11:55 PM
Oct 29
70 °FPassing clouds.3 mph83%30.01 "Hg6 mi
10:55 PM72 °FPassing clouds.6 mph83%30.01 "Hg6 mi
9:55 PM72 °FPassing clouds.5 mph83%30.01 "Hg6 mi
8:55 PM73 °FPassing clouds.6 mph78%30.01 "Hg6 mi
7:55 PM77 °FPassing clouds.7 mph69%29.98 "Hg6 mi
6:55 PM79 °FPassing clouds.7 mph61%29.98 "Hg6 mi
5:55 PM82 °FScattered clouds.12 mph55%29.95 "Hg6 mi
4:55 PM82 °FScattered clouds.13 mph58%29.95 "Hg6 mi
3:55 PM86 °FPartly sunny.12 mph52%29.98 "Hg6 mi
2:55 PM88 °FPartly sunny.6 mph46%29.98 "Hg6 mi
1:55 PM86 °FScattered clouds.7 mph49%30.01 "Hg6 mi
Weather by CustomWeather, © 2014

See weather overviewHow to use our weather pages